{"data":{"norad_id":60442,"epoch":"2026-09-21T16:46:13.378944Z","epoch_age_seconds":84922,"freshness":"FRESH","line1":"1 60442U 24144T   26264.69876596  .00002296  00000+0  79092-4 0  9996","line2":"2 60442  53.1609  22.1040 0001278  75.1802 284.9342 15.34389652119427","mean_motion":15.34389652,"eccentricity":0.0001278,"inclination_deg":53.1609,"raan_deg":22.104,"arg_perigee_deg":75.1802,"mean_anomaly_deg":284.9342,"bstar":7.9092e-5,"rev_number":11942,"period_min":93.848390995275,"perigee_km":461.85973350331,"apogee_km":463.60826013009,"semimajor_km":6840.8709968167,"source":"CELESTRAK","updated_at":"2026-09-22T09:00:49.237037Z"}}